Location: Unspecified
(38.0989°N, 0.6729°W)
Time: 11:50:36
(UTC+02:00)

Envisat - Visible Passes

Search period start: 20 August 2017 00:00
Search period end: 30 August 2017 00:00
Orbit: 764 x 766 km, 98.2° (Epoch: 19 August)

Date Brightness Start Highest point End Pass type
(mag) Time Alt. Az. Time Alt. Az. Time Alt. Az.
20 Aug 2.9 21:51:08 10° SSE 21:56:12 81° ENE 22:01:18 10° N visible
21 Aug 3.7 21:15:03 10° SE 21:19:39 36° ENE 21:24:15 10° N visible
21 Aug 5.0 22:54:38 10° SSW 22:58:42 24° W 23:02:48 10° NW visible
22 Aug 3.6 22:16:51 10° S 22:21:49 56° W 22:26:49 10° NNW visible
23 Aug 3.0 21:40:08 10° SSE 21:45:08 64° ENE 21:50:10 10° N visible
23 Aug 5.6 23:22:11 10° WSW 23:24:33 13° W 23:26:56 10° WNW visible
24 Aug 4.0 21:04:22 10° SE 21:08:38 28° ENE 21:12:57 10° N visible
24 Aug 4.6 22:43:05 10° SSW 22:47:32 31° W 22:52:01 10° NW visible
25 Aug 3.2 22:05:40 10° S 22:10:43 72° WSW 22:15:49 10° NNW visible
26 Aug 3.2 21:29:13 10° SSE 21:34:05 50° ENE 21:38:59 10° N visible
26 Aug 5.5 23:10:04 10° SW 23:13:21 17° W 23:16:39 10° NW visible
27 Aug 4.2 22:31:40 10° SSW 22:36:23 39° W 22:41:09 10° NNW visible
28 Aug 2.9 21:54:33 10° SSE 21:59:37 89° E 22:04:44 10° NNW visible
29 Aug 3.5 21:18:22 10° SE 21:23:03 39° ENE 21:27:45 10° N visible
29 Aug 5.1 22:58:17 10° SW 23:02:10 22° W 23:06:04 10° NW visible
